When you browse on this site, cookies collect data to enhance your experience and personalize the content and advertising you see.
Visit our Privacy Policy to learn more. By continuing to use the site, you agree to this use of cookies and data.
  • în România
  • Lista ţărilor
  • Pe 7 zile
  • Temperatura apei
  • Hartă satelitară
  • Meteo pe hartă
  • Widget-uri
  • user-avatar
    Intrare

    Meteo pe oră la Izvarino

    Astăzi, 19 Iulie, Vineri

    Timp Temperatura Precipitaţii Vânt Presiune Umiditate
    00:00 +12°C° 0 mm 3 m/s 735 mmHg 91%
    01:00 +11°C° 0 mm 3 m/s 735 mmHg 92%
    02:00 +11°C° 0 mm 3 m/s 735 mmHg 94%
    03:00 +12°C° 0 mm 3 m/s 735 mmHg 97%
    04:00 +12°C° 0.3 mm 4 m/s 735 mmHg 96%
    05:00 +12°C° 0.3 mm 4 m/s 735 mmHg 95%
    06:00 +13°C° 0.3 mm 5 m/s 735 mmHg 94%
    07:00 +13°C° 0.4 mm 5 m/s 735 mmHg 94%
    08:00 +13°C° 0.4 mm 6 m/s 735 mmHg 94%
    09:00 +13°C° 0.4 mm 6 m/s 735 mmHg 94%
    10:00 +14°C° 0.3 mm 6 m/s 735 mmHg 92%
    11:00 +15°C° 0.3 mm 6 m/s 735 mmHg 89%
    12:00 +16°C° 0.3 mm 7 m/s 735 mmHg 86%
    13:00 +17°C° 0.3 mm 7 m/s 735 mmHg 83%
    14:00 +18°C° 0.3 mm 7 m/s 736 mmHg 80%
    15:00 +20°C° 0.3 mm 7 m/s 736 mmHg 77%
    16:00 +20°C° 0.1 mm 6 m/s 736 mmHg 78%
    17:00 +20°C° 0.1 mm 6 m/s 736 mmHg 80%
    18:00 +19°C° 0.1 mm 5 m/s 736 mmHg 81%
    19:00 +17°C° 0 mm 5 m/s 736 mmHg 84%
    20:00 +16°C° 0 mm 5 m/s 737 mmHg 88%
    21:00 +15°C° 0 mm 4 m/s 737 mmHg 91%
    22:00 +14°C° 0 mm 5 m/s 737 mmHg 90%
    23:00 +14°C° 0 mm 5 m/s 737 mmHg 89%

    Mâine, 20 Iulie, Sâmbătă

    Timp Temperatura Precipitaţii Vânt Presiune Umiditate
    00:00 +14°C° 0 mm 5 m/s 737 mmHg 88%
    01:00 +13°C° 0 mm 5 m/s 738 mmHg 88%
    02:00 +13°C° 0 mm 6 m/s 738 mmHg 89%
    03:00 +13°C° 0 mm 6 m/s 738 mmHg 89%
    04:00 +13°C° 0 mm 6 m/s 738 mmHg 89%
    05:00 +13°C° 0 mm 6 m/s 738 mmHg 88%
    06:00 +14°C° 0 mm 6 m/s 738 mmHg 88%
    07:00 +14°C° 0 mm 6 m/s 739 mmHg 86%
    08:00 +15°C° 0 mm 6 m/s 739 mmHg 84%
    09:00 +16°C° 0 mm 6 m/s 739 mmHg 82%
    10:00 +17°C° 0 mm 6 m/s 739 mmHg 81%
    11:00 +17°C° 0 mm 6 m/s 740 mmHg 79%
    12:00 +19°C° 0 mm 6 m/s 740 mmHg 78%
    13:00 +19°C° 0.6 mm 6 m/s 740 mmHg 78%
    14:00 +20°C° 0.6 mm 6 m/s 740 mmHg 78%
    15:00 +20°C° 0.6 mm 7 m/s 740 mmHg 79%
    16:00 +20°C° 0.5 mm 6 m/s 740 mmHg 80%
    17:00 +20°C° 0.5 mm 6 m/s 740 mmHg 82%
    18:00 +19°C° 0.5 mm 5 m/s 741 mmHg 83%
    19:00 +18°C° 0.1 mm 4 m/s 741 mmHg 86%
    20:00 +17°C° 0.1 mm 4 m/s 741 mmHg 89%
    21:00 +16°C° 0.1 mm 3 m/s 741 mmHg 92%
    22:00 +15°C° 0 mm 4 m/s 741 mmHg 93%
    23:00 +14°C° 0 mm 4 m/s 742 mmHg 94%

    Poimâine, 21 Iulie, Duminică

    Timp Temperatura Precipitaţii Vânt Presiune Umiditate
    00:00 +14°C° 0 mm 4 m/s 742 mmHg 95%
    01:00 +14°C° 0 mm 4 m/s 742 mmHg 95%
    02:00 +14°C° 0 mm 4 m/s 742 mmHg 95%
    03:00 +13°C° 0 mm 4 m/s 742 mmHg 96%
    04:00 +13°C° 0 mm 4 m/s 742 mmHg 95%
    05:00 +14°C° 0 mm 4 m/s 742 mmHg 94%
    06:00 +14°C° 0 mm 4 m/s 742 mmHg 94%
    07:00 +15°C° 0 mm 4 m/s 742 mmHg 90%
    08:00 +16°C° 0 mm 5 m/s 742 mmHg 87%
    09:00 +19°C° 0 mm 5 m/s 742 mmHg 83%
    10:00 +20°C° 0.3 mm 5 m/s 742 mmHg 81%
    11:00 +21°C° 0.3 mm 5 m/s 742 mmHg 78%
    12:00 +21°C° 0.3 mm 5 m/s 742 mmHg 76%
    13:00 +22°C° 0.5 mm 5 m/s 742 mmHg 75%
    14:00 +22°C° 0.5 mm 5 m/s 742 mmHg 74%
    15:00 +23°C° 0.5 mm 5 m/s 742 mmHg 73%
    16:00 +22°C° 0.6 mm 5 m/s 742 mmHg 75%
    17:00 +22°C° 0.6 mm 5 m/s 742 mmHg 77%
    18:00 +22°C° 0.6 mm 4 m/s 742 mmHg 80%
    19:00 +20°C° 0.1 mm 4 m/s 742 mmHg 84%
    20:00 +19°C° 0.1 mm 3 m/s 742 mmHg 87%
    21:00 +17°C° 0.1 mm 3 m/s 742 mmHg 91%
    22:00 +16°C° 0 mm 3 m/s 742 mmHg 92%
    23:00 +16°C° 0 mm 2 m/s 742 mmHg 92%

    22 Iulie, Luni

    Timp Temperatura Precipitaţii Vânt Presiune Umiditate
    00:00 +15°C° 0 mm 2 m/s 742 mmHg 93%
    01:00 +15°C° 0 mm 2 m/s 742 mmHg 93%
    02:00 +15°C° 0 mm 2 m/s 742 mmHg 94%
    03:00 +14°C° 0 mm 2 m/s 742 mmHg 94%
    04:00 +15°C° 0 mm 2 m/s 742 mmHg 93%
    05:00 +15°C° 0 mm 2 m/s 742 mmHg 93%
    06:00 +15°C° 0 mm 1 m/s 742 mmHg 92%
    07:00 +18°C° 0 mm 1 m/s 742 mmHg 87%
    08:00 +19°C° 0 mm 1 m/s 742 mmHg 81%
    09:00 +20°C° 0 mm 2 m/s 742 mmHg 76%
    10:00 +22°C° 0 mm 1 m/s 742 mmHg 71%
    11:00 +23°C° 0 mm 1 m/s 742 mmHg 66%
    12:00 +24°C° 0 mm 1 m/s 742 mmHg 61%
    13:00 +24°C° 0 mm 1 m/s 741 mmHg 59%
    14:00 +25°C° 0 mm 1 m/s 741 mmHg 58%
    15:00 +25°C° 0 mm 2 m/s 741 mmHg 56%
    16:00 +25°C° 0 mm 1 m/s 741 mmHg 58%
    17:00 +25°C° 0 mm 1 m/s 741 mmHg 61%
    18:00 +25°C° 0 mm 1 m/s 740 mmHg 63%
    19:00 +23°C° 0 mm 1 m/s 740 mmHg 68%
    20:00 +21°C° 0 mm 1 m/s 740 mmHg 72%
    21:00 +19°C° 0 mm 1 m/s 740 mmHg 77%
    22:00 +18°C° 0 mm 1 m/s 740 mmHg 79%
    23:00 +16°C° 0 mm 1 m/s 740 mmHg 80%

    23 Iulie, Marţi

    Timp Temperatura Precipitaţii Vânt Presiune Umiditate
    00:00 +16°C° 0 mm 1 m/s 740 mmHg 82%
    01:00 +15°C° 0 mm 1 m/s 739 mmHg 84%
    02:00 +15°C° 0 mm 2 m/s 739 mmHg 87%
    03:00 +14°C° 0 mm 2 m/s 739 mmHg 90%
    04:00 +14°C° 0 mm 2 m/s 739 mmHg 90%
    05:00 +15°C° 0 mm 2 m/s 739 mmHg 90%
    06:00 +15°C° 0 mm 2 m/s 739 mmHg 90%
    07:00 +16°C° 0 mm 2 m/s 739 mmHg 85%
    08:00 +18°C° 0 mm 3 m/s 739 mmHg 81%
    09:00 +19°C° 0 mm 3 m/s 739 mmHg 76%
    10:00 +20°C° 0 mm 3 m/s 739 mmHg 73%
    11:00 +21°C° 0 mm 3 m/s 739 mmHg 70%
    12:00 +22°C° 0 mm 4 m/s 739 mmHg 66%
    13:00 +22°C° 0 mm 3 m/s 739 mmHg 64%
    14:00 +24°C° 0 mm 3 m/s 739 mmHg 62%
    15:00 +24°C° 0 mm 3 m/s 739 mmHg 60%
    16:00 +24°C° 0 mm 3 m/s 738 mmHg 63%
    17:00 +22°C° 0 mm 3 m/s 738 mmHg 66%
    18:00 +22°C° 0 mm 3 m/s 738 mmHg 69%
    19:00 +20°C° 0 mm 3 m/s 738 mmHg 71%
    20:00 +19°C° 0 mm 2 m/s 739 mmHg 72%
    21:00 +17°C° 0 mm 2 m/s 739 mmHg 74%
    22:00 +16°C° 0 mm 2 m/s 739 mmHg 76%
    23:00 +14°C° 0 mm 3 m/s 739 mmHg 78%

    24 Iulie, Miercuri

    Timp Temperatura Precipitaţii Vânt Presiune Umiditate
    00:00 +14°C° 0 mm 3 m/s 739 mmHg 80%
    01:00 +13°C° 0 mm 3 m/s 739 mmHg 82%
    02:00 +14°C° 0 mm 2 m/s 739 mmHg 84%
    03:00 +13°C° 0 mm 2 m/s 739 mmHg 87%
    04:00 +13°C° 0 mm 2 m/s 739 mmHg 88%
    05:00 +13°C° 0 mm 3 m/s 739 mmHg 89%
    06:00 +13°C° 0 mm 3 m/s 739 mmHg 91%
    07:00 +16°C° 0 mm 3 m/s 739 mmHg 86%
    08:00 +17°C° 0 mm 3 m/s 739 mmHg 82%
    09:00 +19°C° 0 mm 4 m/s 739 mmHg 78%
    10:00 +20°C° 0.1 mm 4 m/s 739 mmHg 75%
    11:00 +21°C° 0.1 mm 4 m/s 739 mmHg 72%
    12:00 +22°C° 0.1 mm 4 m/s 739 mmHg 69%
    13:00 +22°C° 0.2 mm 4 m/s 739 mmHg 69%
    14:00 +22°C° 0.2 mm 4 m/s 739 mmHg 69%
    15:00 +22°C° 0.2 mm 4 m/s 739 mmHg 69%
    16:00 +22°C° 0.1 mm 4 m/s 739 mmHg 70%
    17:00 +21°C° 0.1 mm 3 m/s 739 mmHg 72%
    18:00 +21°C° 0.1 mm 3 m/s 739 mmHg 74%
    19:00 +20°C° 0 mm 3 m/s 739 mmHg 74%
    20:00 +18°C° 0 mm 3 m/s 739 mmHg 74%
    21:00 +17°C° 0 mm 3 m/s 739 mmHg 74%
    22:00 +16°C° 0 mm 3 m/s 739 mmHg 79%
    23:00 +14°C° 0 mm 3 m/s 739 mmHg 84%
    Arată mai mult